QPF
0.00 0.00 0.00 0.00 0.00 0.00 0.00 0.00 0.00 0.00 0.00 0.00 0.00 0.00 0.00 0.00 0.00 0.00 0.00 0.00 0.00 0.00 0.00 0.00 0.00 0.00 0.00 0.00 0.00 0.00 0.00 0.00 0.00 0.00 0.00 0.00 0.00 0.00 0.00 0.00 0.00 0.00 0.00 0.00 0.00 0.00 0.00 0.00 0.00
0.00 0.00 0.00 0.00 0.00 0.00 0.00 0.00 0.00 0.00 0.00 0.00 0.00 0.00 0.00 0.00 0.00 0.00 0.00 0.00 0.00 0.00 0.00 0.00 0.00 0.00 0.00 0.00 0.00 0.00 0.00 0.00 0.00 0.00 0.00 0.00 0.00 0.00 0.00 0.00 0.00 0.00 0.00 0.00 0.00 0.00 0.00 0.00 0.00
0.00 0.00 0.00 0.00 0.00 0.00 0.00 0.00 0.00 0.00 0.00 0.00 0.00 0.00 0.00 0.00 0.00 0.00 0.00 0.00 0.00 0.00 0.00 0.00 0.00 0.00 0.00 0.00 0.00 0.00 0.00 0.00 0.00 0.00 0.00 0.00 0.00 0.00 0.00 0.00 0.00 0.00 0.00 0.00 0.00 0.00 0.00 0.00 0.00
0.00 0.00 0.00 0.00 0.00 0.00 0.00 0.00 0.00 0.00 0.00 0.00 0.00 0.00 0.00 0.00 0.00 0.00 0.00 0.00 0.00 0.00 0.00 0.00 0.00 0.00 0.00 0.00 0.00 0.00 0.00 0.00 0.00 0.00 0.00 0.00 0.00 0.00 0.00 0.00 0.00 0.00 0.00 0.00 0.00 0.00 0.00 0.00 0.00
0.00 0.00 0.00 0.00 0.00 0.00 0.00 0.00 0.00 0.00 0.00 0.00 0.00 0.00 0.00 0.00 0.00 0.00 0.00 0.00 0.00 0.00 0.00 0.00 0.00 0.00 0.00 0.00 0.00 0.00 0.00 0.00 0.00 0.00 0.00 0.00 0.00 0.00 0.00 0.00 0.00 0.00 0.00 0.00 0.00 0.00 0.00 0.00 0.00
0.00 0.00 0.00 0.00 0.00 0.00 0.00 0.00 0.00 0.00 0.00 0.00 0.00 0.00 0.00 0.00 0.00 0.00 0.00 0.00 0.00 0.00 0.00 0.00 0.00 0.00 0.00 0.00 0.00 0.00 0.00 0.00 0.00 0.00 0.00 0.00 0.00 0.00 0.00 0.00 0.00 0.00 0.00 0.00 0.00 0.00 0.00 0.00 0.00
0.00 0.00 0.00 0.00 0.00 0.00 0.00 0.00 0.00 0.00 0.00 0.00 0.00 0.00 0.00 0.00 0.00 0.00 0.00 0.00 0.00 0.00 0.00 0.00 0.00 0.00 0.00 0.00 0.00 0.00 0.00 0.00 0.00 0.00 0.00 0.00 0.00 0.00 0.00 0.00 0.00 0.00 0.00 0.00 0.00 0.00 0.00 0.00 0.00
0.00 0.00 0.00 0.00 0.00 0.00 0.00 0.00 0.00 0.00 0.00 0.00 0.00 0.00 0.00 0.00 0.00 0.00 0.00 0.00 0.00 0.00 0.00 0.00 0.00 0.00 0.00 0.00 0.00 0.00 0.00 0.00 0.00 0.00 0.00 0.00 0.00 0.00 0.00 0.00 0.00 0.00 0.00 0.00 0.00 0.00 0.00 0.00 0.00
0.00 0.00 0.00 0.00 0.00 0.00 0.00 0.00 0.00 0.00 0.00 0.00 0.00 0.00 0.00 0.00 0.00 0.00 0.00 0.00 0.00 0.00 0.00 0.00 0.00 0.00 0.00 0.00 0.00 0.00 0.00 0.00 0.00 0.00 0.00 0.00 0.00 0.00 0.00 0.00 0.00 0.00 0.00 0.00 0.00 0.00 0.00 0.00 0.00
0.00 0.00 0.00 0.00 0.00 0.00 0.00 0.00 0.00 0.00 0.00 0.00 0.00 0.00 0.00 0.00 0.00 0.00 0.00 0.00 0.00 0.00 0.00 0.00 0.00 0.00 0.00 0.00 0.00 0.00 0.00 0.00 0.00 0.00 0.00 0.00 0.00 0.00 0.00 0.00 0.00 0.00 0.00 0.00 0.00 0.00 0.00 0.00 0.00
0.00 0.00 0.00 0.00 0.00 0.00 0.00 0.00 0.00 0.00 0.00 0.00 0.00 0.00 0.00 0.00 0.00 0.00 0.00 0.00 0.00 0.00 0.00 0.00 0.00 0.00 0.00 0.00 0.00 0.00 0.00 0.00 0.00 0.00 0.00 0.00 0.00 0.00 0.00 0.00 0.00 0.00 0.00 0.00 0.00 0.00 0.00 0.00 0.00
0.00 0.00 0.00 0.00 0.00 0.00 0.00 0.00 0.00 0.00 0.00 0.00 0.00 0.00 0.00 0.00 0.00 0.00 0.00 0.00 0.00 0.00 0.00 0.00 0.00 0.00 0.00 0.00 0.00 0.00 0.00 0.00 0.00 0.00 0.00 0.00 0.00 0.00 0.00 0.00 0.00 0.00 0.00 0.00 0.00 0.00 0.00 0.00 0.00
0.00 0.00 0.00 0.00 0.00 0.00 0.00 0.00 0.00 0.00 0.00 0.00 0.00 0.00 0.00 0.00 0.00 0.00 0.00 0.00 0.00 0.00 0.00 0.00 0.00 0.00 0.00 0.00 0.00 0.00 0.00 0.00 0.00 0.00 0.00 0.00 0.00 0.01 0.01 0.00 0.00 0.00 0.00 0.00 0.00 0.00 0.00 0.00 0.00
0.00 0.00 0.00 0.00 0.00 0.00 0.00 0.00 0.00 0.00 0.00 0.00 0.00 0.00 0.00 0.00 0.00 0.00 0.00 0.00 0.00 0.00 0.00 0.00 0.00 0.00 0.00 0.00 0.00 0.00 0.00 0.00 0.00 0.00 0.00 0.00 0.00 0.02 0.02 0.01 0.02 0.02 0.01 0.00 0.00 0.00 0.00 0.00 0.00
0.00 0.00 0.00 0.00 0.00 0.00 0.00 0.00 0.00 0.00 0.00 0.00 0.00 0.00 0.00 0.00 0.00 0.00 0.00 0.00 0.00 0.00 0.00 0.00 0.00 0.00 0.00 0.00 0.00 0.00 0.00 0.00 0.00 0.00 0.00 0.00 0.00 0.04 0.03 0.05 0.06 0.06 0.03 0.01 0.00 0.00 0.00 0.00 0.00
0.00 0.00 0.00 0.00 0.00 0.00 0.00 0.00 0.00 0.00 0.00 0.00 0.00 0.00 0.00 0.00 0.00 0.00 0.00 0.00 0.00 0.00 0.00 0.00 0.00 0.00 0.00 0.00 0.00 0.00 0.00 0.00 0.00 0.00 0.00 0.00 0.00 0.01 0.04 0.07 0.07 0.08 0.04 0.03 0.01 0.00 0.00 0.00 0.00
0.00 0.00 0.00 0.00 0.00 0.00 0.00 0.00 0.00 0.00 0.00 0.00 0.00 0.00 0.00 0.00 0.00 0.00 0.00 0.00 0.00 0.00 0.00 0.00 0.00 0.00 0.00 0.00 0.00 0.00 0.00 0.00 0.00 0.00 0.00 0.00 0.00 0.00 0.02 0.04 0.05 0.08 0.02 0.01 0.00 0.01 0.00 0.00 0.00
0.00 0.00 0.00 0.00 0.00 0.00 0.00 0.00 0.00 0.00 0.00 0.00 0.00 0.00 0.00 0.00 0.00 0.00 0.00 0.00 0.00 0.00 0.00 0.00 0.00 0.00 0.00 0.00 0.00 0.00 0.00 0.00 0.00 0.00 0.00 0.00 0.00 0.00 0.04 0.08 0.04 0.00 0.00 0.00 0.00 0.00 0.00 0.01 0.04
0.00 0.00 0.00 0.00 0.00 0.00 0.00 0.00 0.00 0.00 0.00 0.00 0.00 0.00 0.00 0.00 0.00 0.00 0.00 0.00 0.00 0.00 0.00 0.00 0.00 0.00 0.00 0.00 0.00 0.00 0.00 0.00 0.00 0.00 0.00 0.00 0.00 0.00 0.00 0.06 0.01 0.00 0.00 0.00 0.00 0.01 0.04 0.07 0.10
0.00 0.00 0.00 0.00 0.00 0.00 0.00 0.00 0.00 0.00 0.00 0.00 0.00 0.00 0.00 0.00 0.00 0.00 0.00 0.00 0.00 0.00 0.00 0.00 0.00 0.00 0.00 0.00 0.00 0.00 0.00 0.00 0.00 0.00 0.00 0.00 0.00 0.00 0.00 0.00 0.00 0.00 0.00 0.03 0.08 0.13 0.14 0.12 0.11
0.00 0.00 0.00 0.00 0.00 0.00 0.00 0.00 0.00 0.00 0.00 0.00 0.00 0.00 0.00 0.00 0.00 0.00 0.00 0.00 0.00 0.00 0.00 0.00 0.00 0.00 0.00 0.00 0.00 0.00 0.00 0.00 0.00 0.00 0.00 0.00 0.00 0.00 0.00 0.00 0.00 0.01 0.07 0.16 0.17 0.10 0.04 0.02 0.06
0.00 0.00 0.00 0.00 0.00 0.00 0.00 0.00 0.00 0.00 0.00 0.00 0.00 0.00 0.00 0.00 0.00 0.00 0.00 0.00 0.00 0.00 0.00 0.00 0.00 0.00 0.00 0.00 0.00 0.00 0.00 0.00 0.00 0.00 0.00 0.00 0.00 0.00 0.00 0.00 0.01 0.06 0.08 0.06 0.02 0.00 0.00 0.00 0.00
0.00 0.00 0.00 0.00 0.00 0.00 0.00 0.00 0.00 0.00 0.00 0.00 0.00 0.00 0.00 0.00 0.00 0.00 0.00 0.00 0.00 0.00 0.00 0.00 0.00 0.00 0.00 0.00 0.00 0.00 0.00 0.00 0.00 0.00 0.00 0.00 0.00 0.00 0.00 0.00 0.05 0.06 0.01 0.00 0.00 0.01 0.00 0.00 0.00
0.00 0.00 0.00 0.00 0.00 0.00 0.00 0.00 0.00 0.00 0.00 0.00 0.00 0.00 0.00 0.00 0.00 0.00 0.00 0.00 0.00 0.00 0.00 0.00 0.00 0.00 0.00 0.00 0.00 0.00 0.00 0.00 0.00 0.00 0.00 0.00 0.00 0.00 0.00 0.00 0.01 0.00 0.00 0.00 0.00 0.00 0.00 0.00 0.00
0.00 0.00 0.00 0.00 0.00 0.00 0.00 0.00 0.00 0.00 0.00 0.00 0.00 0.00 0.00 0.00 0.00 0.00 0.00 0.00 0.00 0.00 0.00 0.00 0.00 0.00 0.00 0.00 0.00 0.00 0.00 0.00 0.00 0.00 0.00 0.00 0.00 0.00 0.00 0.00 0.00 0.00 0.00 0.00 0.00 0.00 0.00 0.00 0.00
0.00 0.00 0.00 0.00 0.00 0.00 0.00 0.00 0.00 0.00 0.00 0.00 0.00 0.00 0.00 0.00 0.00 0.00 0.00 0.00 0.00 0.00 0.00 0.00 0.00 0.00 0.00 0.00 0.00 0.00 0.00 0.00 0.00 0.00 0.00 0.00 0.00 0.00 0.00 0.00 0.00 0.00 0.00 0.00 0.00 0.00 0.00 0.00 0.00
0.00 0.00 0.00 0.00 0.00 0.00 0.00 0.00 0.00 0.00 0.00 0.00 0.00 0.00 0.00 0.00 0.00 0.00 0.00 0.00 0.00 0.00 0.00 0.00 0.00 0.00 0.00 0.00 0.00 0.00 0.00 0.00 0.00 0.00 0.00 0.00 0.00 0.00 0.00 0.00 0.00 0.00 0.00 0.00 0.00 0.00 0.00 0.00 0.00
0.00 0.00 0.00 0.00 0.00 0.00 0.00 0.00 0.00 0.00 0.00 0.00 0.00 0.00 0.00 0.00 0.00 0.00 0.00 0.00 0.00 0.00 0.00 0.00 0.00 0.00 0.00 0.00 0.00 0.00 0.00 0.00 0.00 0.00 0.00 0.00 0.00 0.00 0.00 0.00 0.00 0.00 0.00 0.00 0.00 0.00 0.00 0.00 0.00
0.00 0.00 0.00 0.00 0.00 0.00 0.00 0.00 0.00 0.00 0.00 0.00 0.00 0.00 0.00 0.00 0.00 0.00 0.00 0.00 0.00 0.00 0.00 0.00 0.00 0.00 0.00 0.00 0.00 0.00 0.00 0.00 0.00 0.00 0.00 0.00 0.00 0.00 0.00 0.00 0.00 0.00 0.00 0.00 0.00 0.00 0.00 0.00 0.00
0.00 0.00 0.00 0.00 0.00 0.00 0.00 0.00 0.00 0.00 0.00 0.00 0.00 0.00 0.00 0.00 0.00 0.00 0.00 0.00 0.00 0.00 0.00 0.00 0.00 0.00 0.00 0.00 0.00 0.00 0.00 0.00 0.00 0.00 0.00 0.00 0.00 0.00 0.00 0.00 0.00 0.00 0.00 0.00 0.00 0.00 0.00 0.00 0.00
MSLP
1010.75 1010.79 1011.09 1011.17 1012.41 1012.72 1012.05 1010.02 1008.23 1007.06 1006.05 1004.94 1004.31 1004.45 1004.62 1004.98 1005.47 1005.85 1004.58 1004.68 1004.87 1005.77 1006.61 1007.17 1007.68 1008.10 1008.30 1008.69 1009.05 1009.58 1009.98 1010.17 1010.40 1010.63 1010.73 1010.97 1011.27 1011.60 1011.93 1012.06 1012.14 1012.39 1012.82 1013.17 1013.40 1013.86 1013.98 1014.03 1014.08
1010.74 1010.86 1011.16 1011.77 1012.60 1012.57 1011.19 1008.76 1007.49 1006.35 1005.13 1004.30 1004.13 1003.99 1004.13 1004.08 1003.96 1004.01 1004.31 1004.80 1004.85 1005.54 1006.37 1006.78 1007.28 1007.69 1008.18 1008.59 1008.97 1009.37 1009.88 1010.07 1010.31 1010.54 1010.71 1010.91 1011.14 1011.43 1011.86 1012.19 1012.44 1012.58 1012.75 1013.03 1013.27 1013.57 1013.92 1014.03 1014.10
1010.68 1010.76 1011.64 1012.04 1012.24 1011.77 1010.10 1007.75 1006.62 1005.48 1004.65 1004.20 1004.00 1003.23 1003.26 1003.32 1003.39 1003.64 1003.11 1004.49 1005.10 1005.67 1006.08 1006.48 1006.85 1007.39 1007.87 1008.38 1008.81 1009.23 1009.55 1009.93 1010.19 1010.46 1010.73 1010.89 1011.19 1011.44 1011.78 1012.12 1012.43 1012.66 1012.93 1013.19 1013.42 1013.45 1013.76 1013.98 1014.05
1010.66 1011.35 1011.92 1012.03 1011.34 1010.26 1008.76 1007.13 1006.08 1005.08 1003.79 1003.45 1003.44 1003.27 1003.05 1002.55 1002.68 1003.03 1003.39 1004.26 1005.09 1005.74 1006.00 1006.07 1006.48 1007.05 1007.54 1007.95 1008.51 1008.98 1009.32 1009.53 1010.01 1010.32 1010.61 1010.83 1011.13 1011.50 1011.84 1012.11 1012.39 1012.67 1012.77 1013.09 1013.32 1013.50 1013.68 1013.83 1013.93
1010.87 1011.67 1012.03 1011.92 1010.75 1009.03 1007.72 1006.83 1005.98 1005.07 1004.24 1003.57 1003.33 1002.97 1003.12 1002.80 1002.62 1003.01 1003.66 1004.28 1004.78 1005.66 1005.91 1006.22 1006.59 1007.01 1007.44 1007.81 1008.14 1008.45 1008.87 1009.19 1009.71 1010.04 1010.36 1010.62 1010.95 1011.33 1011.72 1012.10 1012.41 1012.58 1012.78 1013.06 1013.18 1013.29 1013.66 1013.80 1013.79
1011.35 1011.92 1012.21 1011.39 1010.00 1008.45 1007.12 1006.16 1005.75 1004.88 1003.95 1003.42 1003.42 1002.93 1002.98 1002.75 1002.93 1003.33 1003.91 1004.39 1004.91 1005.38 1005.80 1006.03 1006.15 1006.73 1007.09 1007.62 1008.08 1008.18 1008.39 1008.84 1009.11 1009.47 1009.89 1010.32 1010.68 1010.97 1011.45 1011.94 1012.43 1012.58 1012.76 1012.92 1013.08 1013.15 1013.42 1013.79 1013.78
1011.15 1012.04 1011.69 1010.83 1009.47 1008.25 1006.59 1005.55 1005.24 1004.36 1003.70 1003.29 1003.04 1003.04 1002.96 1002.77 1002.82 1003.35 1004.12 1004.83 1005.03 1005.63 1006.17 1006.48 1006.61 1006.86 1007.08 1007.38 1007.66 1007.98 1008.14 1008.43 1008.76 1009.00 1009.52 1009.98 1010.44 1010.73 1011.06 1011.60 1012.06 1012.38 1012.67 1012.76 1012.86 1013.00 1013.12 1013.49 1013.68
1010.77 1011.34 1011.23 1010.14 1009.19 1007.68 1006.18 1005.39 1004.47 1004.13 1003.51 1002.94 1002.92 1003.05 1002.85 1002.32 1002.82 1003.62 1004.25 1004.97 1005.38 1005.84 1005.85 1006.05 1006.27 1006.55 1006.97 1007.13 1007.17 1007.58 1007.94 1008.30 1008.50 1008.77 1009.13 1009.64 1010.11 1010.59 1010.95 1011.31 1011.65 1011.98 1012.31 1012.46 1012.62 1012.83 1013.02 1013.34 1013.50
1010.50 1011.06 1010.73 1009.18 1008.43 1007.16 1006.28 1005.69 1004.58 1004.13 1003.78 1003.34 1002.95 1002.75 1002.61 1002.69 1003.22 1004.01 1004.67 1005.07 1005.34 1005.68 1005.76 1005.79 1006.03 1006.36 1006.58 1007.28 1007.40 1007.31 1007.70 1007.99 1008.18 1008.58 1008.81 1009.32 1009.82 1010.21 1010.68 1011.06 1011.41 1011.67 1012.01 1012.22 1012.35 1012.54 1012.67 1013.07 1013.39
1010.01 1010.01 1008.93 1008.16 1007.41 1006.65 1006.32 1005.88 1005.45 1004.80 1004.52 1003.94 1003.21 1002.66 1002.65 1002.77 1003.48 1004.12 1004.56 1004.67 1004.92 1005.06 1005.03 1005.43 1006.01 1006.09 1006.40 1006.52 1006.89 1007.20 1007.41 1007.66 1008.01 1008.22 1008.60 1009.05 1009.48 1009.88 1010.42 1010.80 1011.02 1011.28 1011.65 1011.89 1012.03 1012.24 1012.45 1012.67 1013.11
1009.03 1008.18 1007.58 1006.93 1006.81 1006.49 1005.86 1005.45 1005.31 1005.13 1004.54 1003.70 1003.46 1003.45 1003.41 1003.21 1003.65 1004.33 1004.37 1004.31 1004.00 1003.77 1004.40 1004.47 1004.73 1005.22 1005.93 1006.08 1006.37 1006.59 1007.00 1007.25 1007.55 1007.90 1008.22 1008.67 1009.16 1009.63 1010.18 1010.75 1010.93 1011.13 1011.38 1011.62 1011.75 1011.97 1012.16 1012.48 1012.88
1008.23 1007.24 1006.88 1006.29 1006.54 1006.52 1005.81 1005.44 1004.97 1004.99 1004.21 1003.87 1003.67 1003.50 1003.06 1003.25 1003.61 1003.94 1004.20 1003.85 1003.84 1003.94 1003.56 1003.61 1004.11 1004.77 1005.15 1005.72 1005.86 1006.18 1006.56 1006.94 1007.29 1007.52 1007.94 1008.37 1008.96 1009.46 1010.03 1010.48 1010.73 1010.93 1011.16 1011.44 1011.56 1011.77 1011.99 1012.31 1012.53
1007.94 1006.93 1006.52 1006.26 1006.20 1005.94 1005.87 1005.13 1004.67 1004.18 1004.04 1003.39 1003.41 1003.32 1003.14 1003.03 1003.03 1002.86 1003.04 1003.53 1003.51 1003.71 1002.99 1003.07 1003.44 1003.85 1004.24 1004.82 1005.13 1005.36 1005.69 1006.01 1006.34 1006.85 1007.29 1007.68 1008.35 1008.86 1009.50 1009.95 1010.32 1010.67 1011.13 1011.35 1011.50 1011.57 1011.86 1012.17 1012.26
1006.59 1006.53 1006.43 1006.39 1006.07 1005.94 1005.59 1004.54 1004.79 1002.95 1002.81 1003.28 1002.81 1002.55 1002.50 1002.53 1002.51 1002.62 1002.67 1002.90 1003.17 1002.89 1002.73 1002.35 1002.77 1002.86 1003.46 1003.69 1004.09 1004.26 1004.96 1005.37 1005.78 1006.13 1006.55 1007.20 1007.72 1008.34 1008.97 1009.69 1010.22 1010.28 1010.77 1010.83 1010.95 1011.24 1011.52 1011.78 1011.96
1006.82 1006.90 1006.41 1005.94 1005.87 1005.83 1005.66 1004.13 1002.61 1003.47 1003.04 1002.64 1002.53 1002.22 1002.14 1002.22 1002.27 1002.42 1002.09 1002.42 1002.08 1001.71 1001.60 1001.68 1001.71 1002.29 1002.61 1002.82 1002.94 1003.81 1004.11 1004.68 1005.12 1005.57 1006.07 1006.68 1007.24 1007.92 1008.56 1009.20 1009.52 1009.81 1010.04 1010.59 1010.83 1011.01 1011.32 1011.63 1011.88
1007.17 1007.37 1006.82 1004.86 1005.50 1005.55 1005.58 1002.47 1002.28 1002.55 1002.89 1002.33 1001.91 1001.61 1001.75 1001.61 1001.78 1001.64 1001.65 1001.91 1001.40 1001.13 1000.98 1000.72 1000.92 1001.27 1001.60 1001.84 1002.50 1003.12 1003.42 1003.95 1004.54 1005.05 1005.59 1006.35 1006.90 1007.36 1008.06 1008.47 1008.90 1009.41 1009.83 1010.21 1010.46 1010.86 1011.15 1011.39 1011.63
1007.31 1006.64 1005.83 1005.53 1004.75 1005.20 1005.13 1001.27 1002.30 1002.39 1002.67 1002.24 1002.13 1001.77 1001.63 1001.67 1001.33 1001.07 1000.94 1000.66 1000.45 1000.28 1000.16 1000.08 1000.25 1000.54 1000.73 1001.36 1002.04 1002.62 1003.34 1003.88 1004.37 1004.93 1005.51 1005.86 1006.16 1006.71 1007.33 1007.91 1008.47 1008.93 1009.60 1009.79 1010.27 1010.65 1010.83 1011.13 1011.39
1006.59 1006.62 1005.76 1005.16 1004.49 1004.80 1004.50 1001.60 1002.76 1002.87 1002.77 1002.21 1002.18 1001.69 1001.35 1001.03 1000.63 1000.32 1000.15 999.77 999.79 999.78 999.82 999.64 999.75 1000.10 1000.66 1001.25 1002.32 1002.55 1003.27 1003.67 1004.13 1004.62 1005.17 1005.57 1005.83 1006.32 1007.04 1007.60 1008.30 1008.43 1009.12 1009.64 1010.04 1010.26 1010.57 1010.74 1011.06
1006.44 1006.32 1005.88 1005.24 1005.02 1004.63 1004.05 1002.96 1003.06 1003.05 1002.55 1002.25 1001.85 1001.38 1000.87 1000.59 1000.17 1000.09 999.89 999.67 999.64 999.39 999.49 999.19 999.39 999.83 1000.21 1001.23 1002.29 1002.68 1003.10 1003.58 1004.13 1004.46 1004.79 1005.15 1005.50 1006.02 1006.57 1007.15 1007.76 1008.13 1008.68 1009.09 1009.48 1009.82 1010.23 1010.65 1010.87
1006.84 1006.81 1006.52 1006.09 1005.48 1005.03 1004.79 1003.83 1003.74 1003.26 1002.48 1001.99 1001.44 1000.97 1000.82 1000.56 1000.31 999.98 999.56 999.29 999.41 999.38 998.86 998.76 999.12 999.51 999.65 1000.48 1001.24 1001.72 1002.60 1003.30 1003.66 1004.12 1004.49 1004.93 1005.32 1005.66 1006.11 1006.56 1007.11 1007.81 1008.49 1009.04 1009.28 1009.71 1010.17 1010.46 1010.65
1006.84 1006.99 1006.91 1006.76 1006.20 1005.51 1005.40 1003.86 1003.27 1002.47 1001.91 1001.32 1000.66 1000.35 1000.16 1000.08 1000.14 999.76 999.23 998.91 998.75 998.79 998.54 998.56 998.79 999.15 999.55 1000.26 1000.89 1001.70 1002.37 1003.13 1003.69 1004.14 1004.48 1004.79 1005.11 1005.51 1005.95 1006.42 1006.88 1007.66 1008.23 1008.74 1009.15 1009.54 1009.90 1010.19 1010.41
1006.88 1006.87 1006.96 1007.08 1007.41 1006.84 1005.78 1003.78 1002.93 1002.00 1001.26 1000.80 1000.07 999.59 999.34 999.75 999.56 998.99 998.77 998.63 998.18 997.84 997.99 998.14 998.61 999.02 999.39 999.81 1000.57 1001.11 1001.82 1002.89 1003.08 1003.57 1004.17 1004.71 1005.06 1005.42 1005.83 1006.33 1006.94 1007.55 1008.02 1008.46 1008.87 1009.19 1009.42 1009.89 1010.18
1006.58 1006.74 1007.30 1007.50 1007.72 1007.51 1006.89 1006.28 1001.38 1001.36 1000.26 999.46 999.00 998.49 998.45 998.80 998.40 998.28 998.11 998.03 997.70 997.82 998.01 998.25 998.59 998.90 999.33 999.68 1000.50 1001.09 1001.92 1002.44 1002.91 1003.70 1004.34 1004.81 1005.14 1005.32 1005.76 1006.23 1006.68 1007.24 1007.78 1008.16 1008.47 1008.88 1009.23 1009.55 1009.80
1006.23 1006.87 1007.85 1008.34 1008.70 1007.96 1006.83 1006.79 1000.32 1000.64 999.01 998.27 998.18 998.07 998.06 998.15 998.17 997.67 997.43 997.61 997.64 997.92 998.20 998.43 998.69 999.14 999.54 1000.01 1000.65 1001.02 1001.80 1002.59 1003.40 1004.03 1004.57 1005.00 1005.34 1005.53 1005.80 1006.21 1006.70 1007.14 1007.60 1007.99 1008.29 1008.62 1008.95 1009.24 1009.42
1006.51 1007.22 1008.81 1009.73 1009.38 1007.36 1006.18 1006.17 1000.44 999.03 998.23 998.17 998.13 997.91 997.94 997.89 997.98 997.56 997.38 997.57 997.77 998.09 998.35 998.70 999.01 999.44 999.89 1000.27 1000.86 1001.37 1001.86 1002.50 1003.31 1003.95 1004.54 1005.09 1005.45 1005.77 1005.98 1006.31 1006.76 1007.13 1007.44 1007.77 1008.04 1008.33 1008.64 1008.90 1009.12
1006.70 1007.48 1007.84 1008.23 1008.12 1007.08 1006.21 1004.16 999.72 998.74 997.98 997.91 998.02 998.09 997.93 997.84 997.63 997.15 996.83 997.05 997.64 998.09 998.35 998.67 999.24 999.68 1000.05 1000.59 1001.17 1001.57 1002.02 1002.69 1003.32 1003.75 1004.34 1004.86 1005.28 1005.55 1005.84 1006.23 1006.58 1006.98 1007.28 1007.53 1007.75 1008.07 1008.31 1008.55 1008.84
1006.48 1007.15 1007.29 1007.93 1007.78 1007.28 1005.08 1002.23 999.98 998.82 998.05 997.69 998.13 998.20 998.01 997.59 996.91 996.44 996.13 996.62 997.16 997.79 998.25 998.61 999.30 999.99 1000.36 1000.84 1001.26 1001.73 1002.27 1002.81 1003.34 1003.94 1004.30 1004.83 1005.22 1005.54 1005.87 1006.12 1006.47 1006.84 1007.11 1007.28 1007.51 1007.90 1008.17 1008.39 1008.57
1005.87 1006.28 1007.32 1008.24 1008.03 1007.10 1004.52 1002.60 1000.43 998.75 998.39 997.73 998.35 998.43 997.91 997.13 996.72 996.10 996.00 996.42 997.07 997.67 998.19 998.78 999.38 999.98 1000.61 1001.16 1001.65 1002.06 1002.50 1003.01 1003.47 1003.91 1004.44 1004.84 1005.26 1005.50 1005.85 1006.14 1006.48 1006.74 1006.97 1007.22 1007.59 1007.87 1008.03 1008.26 1008.35
1006.53 1006.61 1007.07 1007.44 1007.43 1006.48 1004.87 1001.84 999.41 998.26 998.28 998.81 998.88 998.39 998.11 997.43 996.78 996.38 996.39 996.73 997.30 997.80 998.31 998.99 999.66 1000.26 1001.04 1001.57 1002.03 1002.38 1002.80 1003.26 1003.69 1004.09 1004.49 1004.93 1005.23 1005.56 1005.86 1006.13 1006.44 1006.61 1006.81 1007.20 1007.54 1007.82 1007.83 1008.02 1008.21
1007.36 1007.43 1007.56 1007.66 1007.27 1006.17 1005.40 1002.45 999.38 998.86 998.79 998.81 998.72 998.12 997.71 997.45 997.22 996.98 997.17 997.28 997.66 998.09 998.57 999.12 999.87 1000.49 1001.21 1001.74 1002.27 1002.72 1003.06 1003.51 1003.97 1004.29 1004.65 1004.95 1005.27 1005.57 1005.79 1006.08 1006.34 1006.62 1006.78 1007.09 1007.32 1007.49 1007.75 1007.90 1008.03
Thickness
5771 5774 5773 5767 5734 5724 5720 5744 5775 5778 5788 5810 5816 5807 5802 5808 5795 5774 5842 5845 5845 5838 5832 5825 5818 5813 5809 5802 5795 5788 5782 5779 5775 5769 5766 5762 5757 5752 5746 5742 5740 5735 5730 5725 5721 5714 5712 5712 5711
5767 5769 5766 5748 5720 5710 5719 5760 5771 5782 5801 5813 5813 5810 5806 5804 5826 5831 5835 5840 5842 5837 5830 5826 5820 5814 5807 5800 5795 5788 5782 5778 5772 5768 5764 5761 5756 5750 5743 5738 5734 5731 5727 5722 5718 5713 5707 5706 5705
5762 5764 5744 5731 5718 5714 5730 5769 5781 5796 5806 5808 5805 5824 5818 5815 5829 5832 5845 5838 5835 5832 5830 5827 5820 5813 5806 5798 5792 5787 5782 5775 5769 5765 5761 5757 5752 5747 5741 5736 5732 5728 5722 5717 5713 5711 5706 5702 5700
5752 5745 5738 5722 5726 5737 5752 5778 5785 5792 5809 5814 5814 5805 5825 5842 5838 5841 5840 5838 5832 5830 5828 5827 5820 5812 5806 5799 5792 5785 5780 5776 5768 5763 5757 5753 5748 5742 5737 5732 5729 5724 5721 5716 5711 5707 5703 5700 5697
5743 5732 5713 5716 5730 5752 5767 5775 5783 5785 5796 5805 5814 5806 5810 5836 5847 5842 5835 5836 5832 5828 5827 5821 5814 5809 5805 5799 5792 5786 5780 5774 5767 5760 5754 5749 5744 5739 5733 5728 5724 5721 5717 5712 5709 5706 5699 5696 5694
5722 5722 5702 5714 5732 5756 5767 5775 5781 5785 5798 5805 5802 5805 5810 5836 5838 5836 5833 5831 5830 5827 5825 5819 5815 5808 5804 5798 5792 5786 5781 5773 5768 5762 5755 5748 5742 5737 5731 5725 5719 5716 5712 5708 5706 5703 5697 5692 5691
5717 5705 5706 5721 5733 5745 5763 5777 5777 5787 5790 5796 5811 5792 5811 5825 5835 5834 5827 5823 5825 5821 5816 5812 5808 5803 5800 5796 5793 5786 5780 5774 5768 5763 5754 5747 5741 5736 5730 5723 5717 5713 5707 5705 5703 5700 5697 5691 5686
5719 5711 5705 5718 5725 5737 5766 5773 5788 5788 5789 5812 5814 5789 5797 5824 5831 5826 5823 5817 5814 5810 5813 5810 5806 5802 5797 5793 5789 5786 5779 5772 5767 5762 5755 5747 5740 5733 5727 5721 5716 5712 5706 5703 5700 5697 5693 5688 5684
5717 5691 5689 5719 5727 5746 5763 5757 5777 5791 5790 5798 5806 5806 5815 5822 5821 5815 5812 5809 5807 5805 5805 5805 5802 5799 5796 5786 5781 5782 5777 5771 5766 5760 5755 5747 5739 5733 5726 5719 5714 5710 5704 5701 5698 5694 5690 5684 5680
5702 5687 5711 5735 5747 5747 5754 5754 5761 5766 5767 5779 5794 5810 5815 5816 5811 5805 5802 5801 5800 5800 5801 5800 5796 5795 5792 5785 5779 5774 5771 5767 5763 5759 5753 5745 5739 5732 5724 5716 5712 5708 5702 5698 5695 5691 5687 5682 5677
5703 5704 5734 5742 5743 5746 5753 5751 5761 5757 5755 5775 5782 5787 5797 5806 5804 5797 5797 5799 5803 5808 5802 5803 5799 5793 5786 5781 5778 5774 5767 5763 5759 5755 5750 5743 5736 5728 5720 5712 5708 5705 5700 5696 5692 5689 5685 5680 5674
5691 5717 5730 5742 5736 5734 5741 5752 5747 5750 5762 5776 5782 5789 5795 5794 5794 5792 5791 5797 5799 5797 5803 5803 5798 5791 5786 5779 5776 5772 5765 5760 5755 5752 5746 5739 5732 5725 5717 5710 5706 5702 5697 5693 5689 5686 5681 5676 5672
5689 5708 5719 5731 5728 5731 5735 5738 5747 5750 5766 5780 5780 5784 5785 5790 5797 5800 5798 5796 5797 5794 5801 5800 5796 5791 5786 5779 5777 5773 5767 5762 5757 5751 5744 5738 5732 5725 5716 5711 5704 5699 5692 5688 5685 5682 5677 5671 5667
5698 5700 5708 5712 5715 5719 5718 5735 5735 5761 5776 5770 5778 5783 5786 5789 5795 5796 5799 5796 5793 5795 5795 5799 5794 5794 5787 5783 5780 5776 5768 5762 5756 5751 5744 5736 5730 5725 5716 5708 5700 5698 5691 5686 5683 5678 5674 5668 5663
5683 5676 5685 5699 5706 5706 5717 5716 5733 5751 5763 5763 5771 5781 5786 5786 5789 5789 5795 5793 5798 5800 5800 5800 5798 5792 5788 5786 5783 5775 5769 5762 5754 5749 5741 5734 5728 5723 5714 5706 5701 5696 5691 5682 5677 5674 5668 5662 5657
5660 5660 5655 5704 5698 5702 5701 5706 5745 5755 5750 5757 5769 5776 5778 5781 5784 5788 5792 5792 5795 5796 5799 5804 5798 5795 5792 5787 5781 5774 5769 5762 5754 5747 5740 5731 5725 5721 5712 5707 5699 5691 5685 5678 5673 5666 5661 5656 5651
5634 5648 5655 5674 5698 5695 5691 5720 5735 5747 5745 5747 5753 5760 5766 5767 5776 5784 5791 5793 5794 5796 5797 5798 5798 5796 5792 5784 5778 5771 5762 5756 5749 5742 5736 5731 5727 5720 5712 5705 5696 5689 5679 5675 5667 5659 5654 5649 5644
5629 5636 5653 5655 5682 5679 5681 5710 5720 5727 5731 5736 5739 5750 5756 5763 5774 5785 5788 5794 5793 5793 5794 5798 5798 5793 5785 5779 5768 5764 5755 5750 5744 5739 5733 5729 5724 5717 5708 5701 5691 5687 5677 5668 5661 5655 5649 5644 5638
5632 5633 5638 5652 5661 5671 5677 5692 5701 5708 5717 5726 5736 5747 5757 5762 5776 5777 5783 5787 5786 5790 5791 5793 5792 5787 5783 5773 5760 5754 5749 5744 5738 5735 5732 5727 5722 5714 5707 5699 5689 5681 5673 5665 5658 5651 5643 5635 5630
5611 5609 5615 5631 5646 5649 5659 5664 5677 5691 5707 5717 5730 5739 5745 5752 5757 5767 5775 5779 5781 5784 5790 5790 5786 5783 5781 5772 5762 5756 5747 5740 5737 5732 5728 5723 5717 5712 5704 5697 5688 5677 5667 5657 5650 5643 5635 5630 5625
5593 5594 5603 5613 5629 5641 5641 5653 5672 5693 5703 5716 5729 5738 5743 5748 5747 5758 5767 5773 5777 5779 5785 5785 5782 5778 5775 5767 5758 5750 5744 5736 5731 5726 5721 5717 5712 5706 5699 5691 5682 5671 5662 5653 5646 5638 5631 5624 5620
5573 5593 5601 5605 5605 5602 5636 5626 5663 5693 5699 5710 5727 5739 5747 5740 5748 5759 5764 5768 5775 5782 5783 5782 5778 5773 5769 5763 5754 5750 5742 5732 5730 5725 5718 5711 5706 5700 5693 5685 5674 5665 5658 5651 5643 5634 5628 5621 5617
5572 5591 5590 5596 5594 5602 5611 5599 5671 5690 5692 5715 5730 5743 5746 5742 5752 5756 5761 5767 5775 5777 5776 5774 5771 5767 5761 5757 5750 5744 5736 5731 5726 5718 5710 5704 5699 5695 5688 5679 5670 5662 5656 5649 5642 5635 5628 5622 5618
5572 5572 5570 5575 5573 5565 5604 5598 5674 5685 5709 5723 5727 5736 5738 5740 5746 5755 5765 5768 5769 5769 5768 5767 5763 5757 5753 5748 5742 5739 5732 5725 5716 5709 5702 5696 5691 5687 5682 5674 5666 5659 5653 5648 5642 5636 5630 5624 5619
5554 5546 5530 5537 5542 5577 5607 5597 5676 5702 5709 5715 5720 5727 5730 5737 5742 5750 5758 5760 5762 5761 5760 5756 5752 5748 5744 5741 5735 5731 5727 5721 5712 5705 5697 5690 5684 5680 5675 5669 5662 5657 5652 5647 5642 5637 5631 5626 5621
5532 5534 5533 5547 5551 5580 5605 5604 5670 5699 5714 5718 5722 5719 5725 5731 5738 5749 5757 5759 5757 5755 5752 5749 5744 5741 5738 5733 5728 5725 5721 5713 5706 5701 5694 5687 5681 5677 5673 5666 5660 5655 5651 5647 5642 5637 5632 5627 5622
5532 5528 5552 5547 5559 5567 5592 5637 5673 5690 5703 5715 5711 5714 5718 5727 5741 5753 5759 5758 5756 5751 5746 5744 5739 5734 5731 5727 5723 5719 5713 5707 5702 5695 5690 5683 5679 5674 5669 5663 5658 5654 5650 5646 5642 5636 5631 5627 5623
5535 5544 5536 5515 5548 5563 5593 5618 5643 5671 5682 5704 5700 5701 5713 5731 5740 5750 5754 5755 5751 5746 5742 5738 5734 5730 5724 5720 5716 5713 5708 5702 5697 5691 5685 5679 5675 5671 5665 5660 5655 5652 5648 5644 5639 5635 5631 5627 5624
5520 5525 5533 5532 5540 5565 5583 5611 5650 5671 5679 5688 5689 5696 5708 5723 5733 5742 5748 5747 5743 5739 5737 5732 5727 5722 5716 5712 5709 5705 5700 5696 5691 5686 5680 5674 5671 5667 5663 5658 5653 5650 5647 5642 5637 5633 5630 5626 5622
5514 5518 5521 5524 5550 5567 5565 5597 5651 5658 5666 5678 5682 5699 5712 5720 5725 5734 5737 5737 5735 5734 5731 5726 5720 5715 5711 5707 5703 5697 5694 5689 5684 5679 5674 5670 5667 5663 5659 5654 5651 5648 5646 5641 5637 5632 5628 5624 5621